STARLINK-31852, 59841

Orbit data source: Space-Track

STARLINK-31852, 59841 is a payload satellite owned by SpaceX/Seattle (US) in LEO that was launched on Thu, 23 May 2024 UTC via an FALCON 9 launch vehicle from the Air Force Eastern Test Range (AFETR). Payload-class satellites include a variety of spacecraft equipped with specific instruments for various scientific and technological missions. These include communications satellites like Starlink; space stations such as the ISS; scientific satellites like the Hubble; Earth observation satellites from companies like Planet Labs, Umbra, and HawkEye 360; GPS; miniature CubeSats for education and research; and military/defense satellites.

Loading next visibility...
Identifier
59841, 2024-097G
Orbit
LEO
Country
Flag of USUS
Related business
Manufacturer
SpaceX/Seattle
Mission
Operational Commercial Communications
Bus & Motor
STARLINK V2M, Unknown motor
Mass
730 kg wet, ~700 kg dry
Launch date (UTC)
2024-05-23 (2 years ago)
Launch vehicle
FALCON 9
Launch site
Air Force Eastern Test Range (AFETR)
Object type
Payload
Rocket body
Debris
Shape & HBR
Box + 2 Pan, 17.7 m
Radar Cross Section
33.884 m², Large (>1 m²)

Expand to show TLE details & history
Last TLE update: 2 days ago

TLE from 2 days ago
0 STARLINK-31852
1 59841U 24097G   26171.00344280  .00001176  00000-0  52253-4 0  9993
2 59841  43.0025  48.8189 0001297 264.3096  95.7608 15.27578141117656
Epoch: 2026-06-20T00:04Z
TLE epoch observation values (Epoch: 2026-06-20T00:04:57.457Z)
Latitude
-0.00002°
Longitude
139.35517°
Altitude
482.92 km
Speed
7.626 km/s
True Right ascension
03h 15m 16s
True Declination
0° 00' 00"
Sunlit
Object was in daylight at epoch
Visualization orbit readout
Latitude
Unknown
Longitude
Unknown
Altitude
Unknown
Speed
Unknown
Apparent Right ascension
Unknown
Apparent Declination
Unknown
Sunlit
N/A
Visualization observer readout
Local Sidereal Time
21:27:03
Azimuth
Unknown
Elevation
Unknown
Doppler factor
Unknown
Orbital elements
Apogee altitude
485.89 km
Perigee altitude
484.109 km
Semi-major axis
6,863.136 km
Eccentricity
0.00013
Inclination
43.0025°
RAAN
48.8189°
Arg. of periapsis
264.3096°
True anomaly
95.77559°
Mean anomaly
95.7608°
Eccentric anomaly
95.76819°
Mean motion
3.81733 °/min
Orbital period
94.31 mins
BSTAR
0.000052253
Loading maneuver chart data...
Computing Atmospheric mass density...
Loading historical data...
Loading historical data...
Loading historical data...
Loading historical data...
Loading historical data...
Loading historical data...
Loading historical data...

Documentation

Showing up to 5 results
|